contact:dominique.lefevre@mio.osupytheas.fr, maurice.libes@osupytheas.fr, didier.mallarino@osupytheas.fr
Project:EMSO http://www.emso-fr.org/EMSO-France
Depth: 2436.0 m
Title:EMSO Ligure Ouest : Data MII capteur AQUADOPP
Date,Latitude,Longitude,X_East,Y_North,Z_Up,Amplitude_X,Amplitude_Y,Amplitude_Z,Batterie,SoundSpeed,Heading,Pitch,Roll,Pressure,TIS,Speed,Direction
, degrees North, degrees East, m.s-1, m.s-1,m.s-1, 1, 1, 1, Volt, m.s-1, degree, degree, degree, dbar, degree_C, m.s-1, degree
2022-08-22T00:04:03,42.805,6.029,-0.002,0.002,-0.034,102.0,102.0,101.0,13.3,1505.2,332.5,-0.8,1.8,2470.918,13.29,0.002,315.0
2022-08-22T00:07:03,42.805,6.029,-0.016,0.004,0.014,104.0,103.0,101.0,13.3,1505.2,323.1,-0.8,1.8,2470.967,13.29,0.016,284.0
2022-08-22T00:10:03,42.805,6.029,-0.003,0.0,-0.01,101.0,102.0,101.0,13.4,1505.2,327.8,-0.8,1.8,2470.933,13.29,0.003,270.0
2022-08-22T00:13:03,42.805,6.029,-0.013,0.007,0.007,103.0,102.0,101.0,13.4,1505.2,329.6,-0.7,1.8,2470.946,13.29,0.014,298.3
2022-08-22T00:16:03,42.805,6.029,-0.004,-0.01,-0.027,102.0,102.0,101.0,13.4,1505.2,332.8,-0.8,1.8,2470.934,13.29,0.01,201.8
2022-08-22T00:19:03,42.805,6.029,-0.006,0.017,0.007,102.0,102.0,101.0,13.3,1505.2,332.6,-0.8,1.8,2470.912,13.3,0.018,340.6
2022-08-22T00:22:03,42.805,6.029,-0.01,0.011,-0.007,103.0,102.0,101.0,13.4,1505.2,332.0,-0.7,1.8,2470.895,13.3,0.014,317.7
2022-08-22T00:25:03,42.805,6.029,-0.031,0.003,-0.041,102.0,102.0,101.0,13.4,1505.2,318.0,-0.8,1.8,2470.945,13.3,0.031,275.5
2022-08-22T00:28:03,42.805,6.029,0.011,-0.026,-0.052,103.0,101.0,101.0,13.4,1505.2,328.3,-0.8,1.9,2470.897,13.29,0.028,157.1
2022-08-22T00:31:03,42.805,6.029,-0.006,0.009,-0.02,102.0,102.0,101.0,13.3,1505.2,319.8,-0.8,1.8,2470.878,13.3,0.01,326.3
2022-08-22T00:34:03,42.805,6.029,0.003,0.006,-0.025,101.0,102.0,102.0,13.4,1505.2,319.7,-0.7,1.9,2470.903,13.3,0.006,26.6
2022-08-22T00:37:03,42.805,6.029,-0.025,0.0,-0.02,102.0,103.0,100.0,13.3,1505.2,329.0,-0.8,1.8,2470.933,13.3,0.025,270.0
2022-08-22T00:40:03,42.805,6.029,-0.005,-0.018,-0.032,102.0,102.0,100.0,13.4,1505.2,329.5,-0.8,1.8,2470.922,13.29,0.018,195.5
2022-08-22T00:43:03,42.805,6.029,-0.006,0.011,0.002,103.0,102.0,101.0,13.4,1505.2,326.4,-0.8,1.8,2470.918,13.3,0.012,331.4
2022-08-22T00:46:03,42.805,6.029,0.0,0.004,0.016,104.0,102.0,100.0,13.3,1505.2,323.9,-0.8,1.8,2470.858,13.29,0.004,0.0
2022-08-22T00:49:03,42.805,6.029,0.021,-0.004,-0.006,102.0,101.0,103.0,13.3,1505.2,321.8,-0.8,1.9,2470.905,13.29,0.021,100.8
2022-08-22T00:52:03,42.805,6.029,-0.008,0.004,-0.024,104.0,103.0,100.0,13.3,1505.2,334.2,-0.7,1.8,2470.874,13.29,0.008,296.6
2022-08-22T00:55:03,42.805,6.029,-0.014,0.026,-0.015,103.0,102.0,100.0,13.4,1505.2,327.9,-0.8,1.8,2470.908,13.29,0.029,331.7
2022-08-22T00:58:03,42.805,6.029,-0.015,-0.003,-0.018,103.0,103.0,100.0,13.3,1505.2,331.7,-0.7,1.8,2470.915,13.29,0.015,258.7
2022-08-22T01:04:03,42.805,6.029,-0.001,0.019,0.011,103.0,103.0,102.0,13.3,1505.2,320.1,-0.8,1.8,2470.926,13.29,0.019,357.0
2022-08-22T01:07:03,42.805,6.029,-0.01,0.002,-0.012,105.0,101.0,101.0,13.4,1505.2,331.1,-0.8,1.8,2470.955,13.29,0.01,281.3
2022-08-22T01:10:03,42.805,6.029,-0.011,0.006,0.0,102.0,102.0,103.0,13.3,1505.2,324.5,-0.8,1.8,2470.924,13.29,0.012,298.6
2022-08-22T01:13:03,42.805,6.029,-0.003,0.006,0.018,102.0,103.0,100.0,13.4,1505.2,332.4,-0.8,1.8,2470.922,13.29,0.006,333.4
2022-08-22T01:16:03,42.805,6.029,-0.003,-0.015,-0.014,102.0,102.0,100.0,13.4,1505.2,322.0,-0.8,1.8,2470.941,13.29,0.015,191.3
2022-08-22T01:19:03,42.805,6.029,-0.022,-0.011,-0.035,100.0,104.0,101.0,13.4,1505.2,323.6,-0.8,1.8,2470.974,13.29,0.024,243.4
2022-08-22T01:22:03,42.805,6.029,-0.014,0.005,-0.039,102.0,101.0,101.0,13.4,1505.2,331.6,-0.8,1.8,2470.895,13.29,0.014,289.6
2022-08-22T01:25:03,42.805,6.029,-0.001,-0.029,-0.051,101.0,107.0,100.0,13.4,1505.2,329.8,-0.7,1.8,2470.933,13.29,0.029,182.0
2022-08-22T01:28:03,42.805,6.029,-0.004,0.0,-0.025,103.0,102.0,101.0,13.4,1505.2,332.6,-0.8,1.8,2470.918,13.29,0.004,270.0
2022-08-22T01:31:03,42.805,6.029,-0.005,0.008,-0.002,102.0,101.0,101.0,13.4,1505.2,328.9,-0.8,1.8,2470.903,13.29,0.009,328.0
2022-08-22T01:34:03,42.805,6.029,-0.005,-0.002,0.002,101.0,102.0,100.0,13.4,1505.2,332.8,-0.7,1.8,2470.869,13.29,0.005,248.2
2022-08-22T01:37:03,42.805,6.029,-0.004,0.002,-0.03,103.0,103.0,101.0,13.4,1505.2,323.7,-0.8,1.8,2470.908,13.29,0.004,296.6
2022-08-22T01:40:03,42.805,6.029,0.012,-0.004,0.018,103.0,104.0,100.0,13.3,1505.2,327.0,-0.7,1.8,2470.893,13.29,0.012,108.4
2022-08-22T01:43:03,42.805,6.029,-0.018,-0.016,-0.004,103.0,102.0,101.0,13.4,1505.2,329.6,-0.7,1.8,2470.918,13.29,0.024,228.4
2022-08-22T01:46:03,42.805,6.029,-0.009,-0.002,-0.018,102.0,102.0,101.0,13.4,1505.2,321.4,-0.8,1.8,2470.938,13.29,0.009,257.5
2022-08-22T01:49:03,42.805,6.029,-0.04,-0.001,-0.024,102.0,104.0,101.0,13.4,1505.2,323.2,-0.8,1.8,2470.933,13.29,0.04,268.6
2022-08-22T01:52:03,42.805,6.029,-0.004,-0.01,-0.003,107.0,103.0,100.0,13.3,1505.2,323.2,-0.7,1.8,2470.961,13.29,0.01,201.8
2022-08-22T01:55:03,42.805,6.029,-0.015,0.003,-0.02,101.0,103.0,100.0,13.3,1505.2,331.8,-0.7,1.8,2470.937,13.29,0.015,281.3
2022-08-22T01:58:03,42.805,6.029,-0.02,0.008,-0.026,102.0,103.0,101.0,13.4,1505.2,328.3,-0.8,1.8,2470.955,13.29,0.021,291.8
2022-08-22T02:04:03,42.805,6.029,-0.025,-0.013,-0.026,102.0,104.0,101.0,13.4,1505.2,319.4,-0.8,1.8,2470.993,13.29,0.028,242.5
2022-08-22T02:07:03,42.805,6.029,-0.038,0.026,-0.025,102.0,102.0,100.0,13.3,1505.2,328.3,-0.8,1.8,2470.932,13.29,0.046,304.4
2022-08-22T02:10:03,42.805,6.029,0.001,0.002,-0.022,102.0,103.0,101.0,13.3,1505.2,328.1,-0.8,1.8,2470.931,13.29,0.002,26.6
2022-08-22T02:13:03,42.805,6.029,-0.007,-0.009,-0.02,104.0,102.0,101.0,13.3,1505.2,328.8,-0.8,1.8,2470.955,13.29,0.011,217.9
2022-08-22T02:16:03,42.805,6.029,-0.034,0.015,-0.022,101.0,103.0,100.0,13.4,1505.2,319.5,-0.8,1.8,2470.911,13.29,0.037,293.8
2022-08-22T02:19:03,42.805,6.029,-0.01,0.003,-0.042,101.0,102.0,100.0,13.3,1505.2,320.1,-0.8,1.8,2470.897,13.29,0.01,286.7
2022-08-22T02:22:03,42.805,6.029,-0.019,0.015,-0.023,102.0,101.0,100.0,13.3,1505.2,320.5,-0.8,1.8,2470.943,13.29,0.024,308.3
2022-08-22T02:25:03,42.805,6.029,0.006,0.0,0.005,102.0,101.0,101.0,13.4,1505.2,323.0,-0.7,1.9,2470.933,13.29,0.006,90.0
2022-08-22T02:28:03,42.805,6.029,-0.03,0.007,0.023,102.0,103.0,100.0,13.3,1505.2,329.6,-0.7,1.9,2470.881,13.29,0.03,283.1
2022-08-22T02:31:03,42.805,6.029,0.01,0.004,-0.02,102.0,102.0,101.0,13.4,1505.2,321.8,-0.8,1.8,2470.945,13.29,0.01,68.2
2022-08-22T02:34:03,42.805,6.029,-0.022,0.003,-0.044,102.0,102.0,101.0,13.4,1505.2,323.6,-0.8,1.8,2470.897,13.29,0.022,277.8
2022-08-22T02:37:03,42.805,6.029,-0.022,-0.011,-0.026,102.0,103.0,100.0,13.4,1505.2,327.9,-0.8,1.8,2470.921,13.29,0.024,243.4
2022-08-22T02:40:03,42.805,6.029,-0.021,-0.006,-0.027,102.0,102.0,100.0,13.3,1505.2,324.7,-0.8,1.8,2470.93,13.29,0.021,254.1
2022-08-22T02:43:03,42.805,6.029,-0.01,0.008,-0.005,102.0,103.0,99.0,13.4,1505.2,319.6,-0.8,1.8,2470.933,13.29,0.012,308.7
2022-08-22T02:46:03,42.805,6.029,-0.006,0.009,-0.03,102.0,102.0,101.0,13.3,1505.2,319.2,-0.8,1.8,2470.922,13.29,0.01,326.3
2022-08-22T02:49:03,42.805,6.029,-0.009,-0.015,-0.032,102.0,103.0,101.0,13.4,1505.2,331.8,-0.8,1.9,2470.905,13.29,0.017,211.0
2022-08-22T02:52:03,42.805,6.029,-0.011,0.003,-0.007,101.0,103.0,100.0,13.3,1505.2,329.3,-0.8,1.8,2470.944,13.29,0.011,285.3
2022-08-22T02:55:03,42.805,6.029,-0.001,-0.023,-0.029,103.0,102.0,101.0,13.4,1505.2,328.3,-0.8,1.8,2470.941,13.29,0.023,182.5
2022-08-22T02:58:03,42.805,6.029,-0.005,0.018,-0.007,102.0,101.0,102.0,13.4,1505.2,327.6,-0.8,1.8,2470.906,13.29,0.018,344.5
2022-08-22T03:04:03,42.805,6.029,0.0,0.011,0.009,102.0,102.0,100.0,13.3,1505.2,318.5,-0.8,1.9,2470.915,13.29,0.011,0.0
2022-08-22T03:07:03,42.805,6.029,-0.02,0.005,0.0,103.0,103.0,100.0,13.4,1505.2,331.7,-0.7,1.8,2470.949,13.29,0.02,284.0
2022-08-22T03:10:03,42.805,6.029,-0.028,0.013,-0.041,103.0,103.0,100.0,13.4,1505.2,329.4,-0.7,1.8,2470.927,13.29,0.03,294.9
2022-08-22T03:13:03,42.805,6.029,-0.004,0.012,0.018,103.0,101.0,101.0,13.3,1505.2,331.7,-0.8,1.8,2470.966,13.29,0.012,341.6
2022-08-22T03:16:03,42.805,6.029,0.0,-0.011,-0.007,101.0,103.0,100.0,13.4,1505.2,325.3,-0.8,1.8,2470.934,13.29,0.011,180.0
2022-08-22T03:19:03,42.805,6.029,-0.027,-0.002,-0.026,102.0,101.0,101.0,13.3,1505.2,321.4,-0.7,1.8,2470.918,13.29,0.027,265.8
2022-08-22T03:22:03,42.805,6.029,0.0,-0.035,-0.054,101.0,101.0,101.0,13.3,1505.2,322.8,-0.7,1.8,2470.936,13.29,0.035,180.0
2022-08-22T03:25:03,42.805,6.029,-0.019,0.003,-0.015,102.0,101.0,102.0,13.3,1505.2,327.9,-0.8,1.8,2470.922,13.29,0.019,279.0
2022-08-22T03:28:03,42.805,6.029,0.003,0.014,-0.025,101.0,103.0,101.0,13.4,1505.2,323.8,-0.7,1.8,2470.958,13.29,0.014,12.1
2022-08-22T03:31:03,42.805,6.029,-0.026,0.01,0.0,103.0,102.0,101.0,13.4,1505.2,323.8,-0.8,1.8,2470.948,13.29,0.027,291.0
2022-08-22T03:34:03,42.805,6.029,-0.039,0.023,-0.022,102.0,103.0,100.0,13.3,1505.2,319.1,-0.7,1.8,2470.924,13.29,0.045,300.5
2022-08-22T03:37:03,42.805,6.029,-0.022,0.02,-0.022,103.0,103.0,100.0,13.4,1505.2,323.8,-0.8,1.8,2470.936,13.29,0.029,312.3
2022-08-22T03:40:03,42.805,6.029,-0.018,-0.003,-0.039,102.0,102.0,102.0,13.4,1505.2,332.9,-0.8,1.8,2470.943,13.29,0.018,260.5
2022-08-22T03:43:03,42.805,6.029,-0.009,0.012,-0.008,102.0,103.0,101.0,13.4,1505.2,333.7,-0.7,1.8,2470.966,13.29,0.015,323.1
2022-08-22T03:46:03,42.805,6.029,-0.016,0.017,0.004,101.0,103.0,101.0,13.4,1505.2,333.9,-0.7,1.8,2470.944,13.29,0.023,316.7
2022-08-22T03:49:03,42.805,6.029,-0.022,0.018,-0.027,102.0,102.0,101.0,13.4,1505.2,322.1,-0.8,1.8,2470.897,13.29,0.028,309.3
2022-08-22T03:52:03,42.805,6.029,0.002,-0.002,-0.005,102.0,103.0,101.0,13.4,1505.2,321.1,-0.8,1.8,2470.906,13.29,0.002,135.0
2022-08-22T03:55:03,42.805,6.029,-0.01,-0.001,-0.014,102.0,101.0,101.0,13.3,1505.2,329.9,-0.7,1.8,2470.905,13.29,0.01,264.3
2022-08-22T03:58:03,42.805,6.029,-0.014,0.025,0.008,101.0,102.0,102.0,13.3,1505.2,325.5,-0.8,1.8,2470.937,13.29,0.028,330.7
2022-08-22T04:04:03,42.805,6.029,-0.024,0.002,-0.015,102.0,105.0,101.0,13.4,1505.2,321.9,-0.8,1.8,2470.974,13.29,0.024,274.8
2022-08-22T04:07:03,42.805,6.029,-0.022,0.004,-0.002,102.0,102.0,100.0,13.4,1505.2,327.6,-0.7,1.8,2470.966,13.29,0.022,280.3
2022-08-22T04:10:03,42.805,6.029,-0.008,-0.006,0.011,103.0,101.0,102.0,13.4,1505.2,319.2,-0.7,1.8,2470.923,13.29,0.01,233.1
2022-08-22T04:13:03,42.805,6.029,-0.016,-0.003,-0.012,104.0,102.0,100.0,13.4,1505.2,331.4,-0.8,1.8,2470.949,13.29,0.016,259.4
2022-08-22T04:16:03,42.805,6.029,-0.004,0.004,-0.01,103.0,102.0,102.0,13.3,1505.2,323.4,-0.8,1.8,2470.945,13.29,0.005,315.0
2022-08-22T04:19:03,42.805,6.029,-0.014,0.0,-0.003,103.0,102.0,102.0,13.3,1505.2,321.9,-0.8,1.8,2470.93,13.29,0.014,270.0
2022-08-22T04:22:03,42.805,6.029,-0.027,0.012,-0.002,103.0,102.0,100.0,13.3,1505.2,324.7,-0.8,1.8,2470.922,13.29,0.029,294.0
2022-08-22T04:25:03,42.805,6.029,-0.037,0.014,-0.011,103.0,105.0,102.0,13.3,1505.2,328.6,-0.8,1.8,2470.907,13.29,0.039,290.7
2022-08-22T04:28:03,42.805,6.029,-0.005,0.008,-0.034,103.0,103.0,101.0,13.3,1505.2,317.3,-0.8,1.8,2470.925,13.29,0.009,328.0
2022-08-22T04:31:03,42.805,6.029,-0.029,-0.01,-0.026,104.0,103.0,101.0,13.4,1505.2,320.4,-0.8,1.8,2470.944,13.29,0.03,251.0
2022-08-22T04:34:03,42.805,6.029,-0.026,-0.004,-0.033,103.0,102.0,102.0,13.4,1505.2,320.4,-0.8,1.8,2470.873,13.29,0.026,261.3
2022-08-22T04:37:03,42.805,6.029,-0.032,0.022,-0.004,101.0,103.0,102.0,13.4,1505.2,327.4,-0.7,1.8,2470.898,13.29,0.038,304.5
2022-08-22T04:40:03,42.805,6.029,-0.016,0.002,-0.007,102.0,105.0,101.0,13.4,1505.2,327.6,-0.8,1.8,2470.91,13.29,0.016,277.1
2022-08-22T04:43:03,42.805,6.029,-0.042,0.028,-0.001,104.0,103.0,101.0,13.3,1505.2,323.2,-0.8,1.8,2470.944,13.29,0.05,303.7
2022-08-22T04:46:03,42.805,6.029,0.0,0.007,0.01,104.0,103.0,101.0,13.3,1505.2,324.6,-0.7,1.8,2470.96,13.29,0.007,0.0
2022-08-22T04:49:03,42.805,6.029,-0.026,0.019,0.005,107.0,103.0,101.0,13.4,1505.2,326.3,-0.7,1.8,2470.974,13.29,0.032,306.2
2022-08-22T04:52:03,42.805,6.029,-0.009,0.009,-0.01,101.0,105.0,103.0,13.4,1505.2,324.4,-0.8,1.8,2470.906,13.29,0.012,315.0
2022-08-22T04:55:03,42.805,6.029,-0.011,0.003,0.003,104.0,103.0,101.0,13.4,1505.2,320.9,-0.8,1.8,2470.895,13.29,0.011,285.3
2022-08-22T04:58:03,42.805,6.029,-0.043,0.009,-0.022,102.0,102.0,102.0,13.4,1505.2,321.2,-0.8,1.8,2470.915,13.29,0.043,281.8
2022-08-22T05:04:03,42.805,6.029,-0.016,0.006,-0.004,103.0,102.0,102.0,13.4,1505.2,318.8,-0.8,1.8,2471.01,13.29,0.017,290.6
2022-08-22T05:07:03,42.805,6.029,-0.02,-0.007,-0.019,103.0,103.0,101.0,13.3,1505.2,319.8,-0.8,1.8,2470.945,13.29,0.021,250.7
2022-08-22T05:10:03,42.805,6.029,-0.014,-0.003,-0.029,102.0,102.0,102.0,13.4,1505.2,331.8,-0.8,1.8,2470.925,13.29,0.014,257.9
2022-08-22T05:13:03,42.805,6.029,-0.018,-0.003,-0.019,103.0,102.0,101.0,13.3,1505.2,331.7,-0.8,1.8,2470.916,13.29,0.018,260.5
2022-08-22T05:16:03,42.805,6.029,-0.042,0.008,-0.04,102.0,103.0,102.0,13.4,1505.2,328.7,-0.8,1.8,2470.938,13.29,0.042,280.8
2022-08-22T05:19:03,42.805,6.029,-0.01,0.005,-0.027,102.0,102.0,102.0,13.3,1505.2,327.3,-0.8,1.8,2470.941,13.29,0.011,296.6
2022-08-22T05:22:03,42.805,6.029,-0.019,-0.007,-0.004,103.0,104.0,101.0,13.4,1505.2,319.1,-0.8,1.8,2470.922,13.29,0.02,249.8
2022-08-22T05:25:03,42.805,6.029,-0.014,0.015,-0.021,104.0,103.0,101.0,13.4,1505.2,322.1,-0.8,1.8,2470.928,13.29,0.02,317.0
2022-08-22T05:28:03,42.805,6.029,0.003,0.008,-0.003,106.0,103.0,101.0,13.4,1505.2,318.3,-0.8,1.8,2470.907,13.29,0.008,20.6
2022-08-22T05:31:03,42.805,6.029,-0.02,0.014,-0.031,104.0,103.0,101.0,13.4,1505.2,326.3,-0.8,1.8,2470.876,13.29,0.024,305.0
2022-08-22T05:34:03,42.805,6.029,-0.016,0.012,-0.021,104.0,102.0,101.0,13.3,1505.2,332.3,-0.8,1.8,2470.931,13.29,0.02,306.9
2022-08-22T05:37:03,42.805,6.029,-0.017,0.002,0.005,102.0,104.0,102.0,13.4,1505.2,331.8,-0.8,1.8,2470.898,13.29,0.017,276.7
2022-08-22T05:40:03,42.805,6.029,-0.012,0.021,0.025,102.0,102.0,102.0,13.4,1505.2,330.7,-0.7,1.8,2470.935,13.29,0.024,330.3
2022-08-22T05:43:03,42.805,6.029,-0.021,0.002,0.01,104.0,103.0,100.0,13.4,1505.2,327.8,-0.7,1.8,2470.88,13.29,0.021,275.4
2022-08-22T05:46:03,42.805,6.029,-0.042,0.001,0.001,102.0,103.0,100.0,13.4,1505.2,328.4,-0.8,1.8,2470.914,13.29,0.042,271.4
2022-08-22T05:49:03,42.805,6.029,-0.025,0.008,0.001,103.0,101.0,101.0,13.4,1505.2,323.0,-0.8,1.8,2470.907,13.29,0.026,287.7
2022-08-22T05:52:03,42.805,6.029,-0.013,0.018,0.012,103.0,104.0,101.0,13.4,1505.2,328.3,-0.8,1.8,2470.899,13.29,0.022,324.2
2022-08-22T05:55:03,42.805,6.029,-0.024,0.004,-0.011,103.0,102.0,101.0,13.4,1505.2,319.4,-0.7,1.8,2470.923,13.29,0.024,279.5
2022-08-22T05:58:03,42.805,6.029,-0.02,0.009,0.004,104.0,102.0,101.0,13.3,1505.2,326.4,-0.7,1.8,2470.917,13.29,0.021,294.2
2022-08-22T06:04:03,42.805,6.029,-0.004,-0.003,0.002,102.0,102.0,104.0,13.4,1505.2,318.0,-0.8,1.8,2470.945,13.29,0.005,233.1
2022-08-22T06:07:03,42.805,6.029,-0.018,-0.019,0.0,103.0,103.0,102.0,13.4,1505.2,320.6,-0.8,1.8,2470.949,13.29,0.026,223.5
2022-08-22T06:10:03,42.805,6.029,-0.03,0.018,-0.007,102.0,103.0,102.0,13.4,1505.2,326.7,-0.7,1.8,2470.93,13.29,0.034,301.0
2022-08-22T06:13:03,42.805,6.029,-0.014,0.011,-0.018,102.0,102.0,101.0,13.3,1505.2,332.8,-0.8,1.8,2470.9,13.29,0.017,308.2
2022-08-22T06:16:03,42.805,6.029,-0.019,0.0,-0.028,104.0,103.0,100.0,13.3,1505.2,321.5,-0.7,1.8,2470.95,13.29,0.019,270.0
2022-08-22T06:19:03,42.805,6.029,-0.016,-0.008,-0.015,102.0,104.0,101.0,13.3,1505.2,322.6,-0.8,1.8,2470.932,13.29,0.017,243.4
2022-08-22T06:22:03,42.805,6.029,-0.034,0.01,0.0,104.0,102.0,101.0,13.3,1505.2,331.1,-0.8,1.8,2470.932,13.29,0.035,286.4
2022-08-22T06:25:03,42.805,6.029,-0.019,0.014,-0.021,103.0,102.0,100.0,13.4,1505.2,322.3,-0.7,1.8,2470.904,13.29,0.023,306.4
2022-08-22T06:28:03,42.805,6.029,0.012,0.022,0.023,102.0,102.0,100.0,13.4,1505.2,319.7,-0.8,1.8,2470.9,13.29,0.025,28.6
2022-08-22T06:31:03,42.805,6.029,-0.003,-0.003,0.007,103.0,102.0,102.0,13.4,1505.2,324.5,-0.8,1.8,2470.896,13.29,0.004,225.0
2022-08-22T06:34:03,42.805,6.029,-0.032,0.004,-0.016,103.0,102.0,101.0,13.3,1505.2,333.6,-0.8,1.8,2470.944,13.29,0.032,277.1
2022-08-22T06:37:03,42.805,6.029,-0.013,0.012,-0.022,102.0,102.0,101.0,13.4,1505.2,329.1,-0.7,1.8,2470.901,13.29,0.017,312.7
2022-08-22T06:40:03,42.805,6.029,-0.031,-0.003,-0.004,102.0,103.0,100.0,13.4,1505.2,326.1,-0.8,1.8,2470.908,13.29,0.031,264.5
2022-08-22T06:43:03,42.805,6.029,-0.014,0.003,0.001,103.0,103.0,101.0,13.4,1505.2,323.8,-0.8,1.8,2470.92,13.29,0.014,282.1
2022-08-22T06:46:03,42.805,6.029,-0.025,-0.005,0.0,103.0,102.0,101.0,13.4,1505.2,326.4,-0.7,1.8,2470.88,13.29,0.025,258.7
2022-08-22T06:49:03,42.805,6.029,-0.025,0.008,-0.007,103.0,103.0,100.0,13.3,1505.2,329.3,-0.8,1.8,2470.906,13.29,0.026,287.7
2022-08-22T06:52:03,42.805,6.029,-0.014,0.012,-0.007,102.0,103.0,101.0,13.4,1505.2,328.5,-0.7,1.8,2470.935,13.29,0.018,310.6
2022-08-22T06:55:03,42.805,6.029,-0.017,0.002,0.027,104.0,103.0,101.0,13.4,1505.2,327.8,-0.7,1.8,2470.908,13.29,0.017,276.7
2022-08-22T06:58:03,42.805,6.029,-0.024,0.015,-0.018,102.0,104.0,100.0,13.3,1505.2,320.4,-0.7,1.9,2470.911,13.29,0.028,302.0
2022-08-22T07:04:03,42.805,6.029,-0.017,0.017,-0.018,102.0,101.0,101.0,13.4,1505.2,330.6,-0.8,1.9,2470.919,13.29,0.024,315.0
2022-08-22T07:07:03,42.805,6.029,-0.032,0.022,-0.007,103.0,102.0,101.0,13.4,1505.2,325.0,-0.8,1.8,2470.913,13.29,0.038,304.5
2022-08-22T07:10:03,42.805,6.029,-0.031,-0.012,-0.023,105.0,102.0,100.0,13.3,1505.2,328.5,-0.8,1.8,2470.909,13.29,0.033,248.8
2022-08-22T07:13:03,42.805,6.029,-0.028,-0.004,-0.021,102.0,102.0,101.0,13.4,1505.2,321.1,-0.7,1.8,2470.892,13.29,0.028,261.9
2022-08-22T07:16:03,42.805,6.029,-0.033,0.026,-0.017,102.0,103.0,101.0,13.4,1505.2,326.4,-0.8,1.8,2470.923,13.29,0.042,308.2
2022-08-22T07:19:03,42.805,6.029,0.001,0.017,-0.042,103.0,102.0,100.0,13.4,1505.2,330.1,-0.8,1.9,2470.883,13.29,0.017,3.4
2022-08-22T07:22:03,42.805,6.029,-0.039,-0.009,0.012,103.0,103.0,100.0,13.4,1505.2,321.6,-0.8,1.8,2470.93,13.29,0.04,257.0
2022-08-22T07:25:03,42.805,6.029,-0.02,0.029,0.001,102.0,102.0,100.0,13.4,1505.2,325.6,-0.7,1.8,2470.891,13.29,0.035,325.4
2022-08-22T07:28:03,42.805,6.029,0.001,0.004,-0.003,102.0,102.0,100.0,13.3,1505.2,327.3,-0.8,1.8,2470.901,13.29,0.004,14.0
2022-08-22T07:31:03,42.805,6.029,-0.019,-0.003,-0.025,102.0,102.0,101.0,13.3,1505.2,332.9,-0.8,1.8,2470.867,13.29,0.019,261.0
2022-08-22T07:34:03,42.805,6.029,-0.032,0.0,-0.035,102.0,102.0,100.0,13.4,1505.2,326.6,-0.7,1.8,2470.918,13.29,0.032,270.0
2022-08-22T07:37:03,42.805,6.029,-0.012,0.017,-0.005,102.0,102.0,99.0,13.4,1505.2,330.6,-0.8,1.8,2470.877,13.29,0.02,324.8
2022-08-22T07:40:03,42.805,6.029,0.002,0.017,-0.037,102.0,102.0,100.0,13.4,1505.2,333.4,-0.8,1.8,2470.901,13.29,0.017,6.7
2022-08-22T07:43:03,42.805,6.029,-0.035,-0.011,-0.021,102.0,102.0,101.0,13.4,1505.2,325.1,-0.8,1.9,2470.904,13.29,0.036,252.6
2022-08-22T07:46:03,42.805,6.029,-0.028,-0.011,-0.014,103.0,101.0,100.0,13.4,1505.2,328.5,-0.7,1.8,2470.85,13.29,0.03,248.6
2022-08-22T07:49:03,42.805,6.029,-0.025,-0.004,-0.026,102.0,102.0,101.0,13.4,1505.2,321.3,-0.8,1.8,2470.896,13.29,0.025,260.9
2022-08-22T07:52:03,42.805,6.029,-0.018,0.007,0.0,102.0,102.0,100.0,13.3,1505.2,326.8,-0.8,1.8,2470.86,13.29,0.019,291.2
2022-08-22T07:55:03,42.805,6.029,-0.013,-0.002,-0.003,102.0,102.0,100.0,13.3,1505.2,325.7,-0.7,1.8,2470.832,13.29,0.013,261.3
2022-08-22T07:58:03,42.805,6.029,-0.013,-0.001,0.007,102.0,103.0,100.0,13.3,1505.2,323.1,-0.8,1.8,2470.836,13.29,0.013,265.6
2022-08-22T08:04:03,42.805,6.029,-0.008,-0.006,0.01,102.0,102.0,102.0,13.3,1505.2,322.3,-0.8,1.8,2470.949,13.29,0.01,233.1
2022-08-22T08:07:03,42.805,6.029,-0.023,0.009,-0.01,103.0,102.0,102.0,13.3,1505.2,319.8,-0.8,1.8,2470.86,13.29,0.024,291.4
2022-08-22T08:10:03,42.805,6.029,-0.005,0.002,-0.036,103.0,102.0,101.0,13.4,1505.2,326.4,-0.8,1.8,2470.864,13.29,0.005,291.8
2022-08-22T08:13:03,42.805,6.029,-0.017,0.017,0.007,102.0,102.0,101.0,13.4,1505.2,327.3,-0.7,1.8,2470.906,13.29,0.024,315.0
2022-08-22T08:16:03,42.805,6.029,-0.004,-0.001,-0.006,102.0,102.0,102.0,13.4,1505.2,318.2,-0.8,1.8,2470.875,13.29,0.004,256.0
2022-08-22T08:19:03,42.805,6.029,-0.014,0.016,0.02,103.0,102.0,101.0,13.4,1505.2,332.5,-0.7,1.8,2470.896,13.29,0.021,318.8
2022-08-22T08:22:03,42.805,6.029,-0.012,0.017,-0.008,102.0,102.0,101.0,13.4,1505.2,326.9,-0.8,1.8,2470.85,13.29,0.02,324.8
2022-08-22T08:25:03,42.805,6.029,-0.013,0.001,-0.02,103.0,103.0,102.0,13.4,1505.2,326.4,-0.8,1.8,2470.86,13.29,0.013,274.4
2022-08-22T08:28:03,42.805,6.029,-0.02,0.02,-0.022,102.0,103.0,101.0,13.4,1505.2,319.4,-0.7,1.8,2470.84,13.29,0.028,315.0
2022-08-22T08:31:03,42.805,6.029,-0.037,0.022,0.0,99.0,103.0,101.0,13.4,1505.2,322.5,-0.7,1.8,2470.856,13.29,0.043,300.7
2022-08-22T08:34:03,42.805,6.029,-0.019,0.024,0.0,102.0,104.0,100.0,13.3,1505.2,319.4,-0.7,1.8,2470.793,13.29,0.03,321.6
2022-08-22T08:37:03,42.805,6.029,-0.003,0.005,-0.008,102.0,103.0,101.0,13.4,1505.2,333.9,-0.8,1.8,2470.861,13.29,0.005,329.0
2022-08-22T08:40:03,42.805,6.029,-0.021,0.011,-0.052,101.0,102.0,101.0,13.4,1505.2,326.4,-0.8,1.8,2470.843,13.29,0.023,297.6
2022-08-22T08:43:03,42.805,6.029,-0.015,0.011,-0.015,103.0,102.0,101.0,13.4,1505.2,333.7,-0.7,1.8,2470.853,13.29,0.018,306.3
2022-08-22T08:46:03,42.805,6.029,-0.041,-0.001,-0.025,102.0,102.0,101.0,13.3,1505.2,321.0,-0.8,1.8,2470.848,13.29,0.041,268.6
2022-08-22T08:49:03,42.805,6.029,-0.008,0.003,-0.027,102.0,104.0,101.0,13.3,1505.2,325.7,-0.8,1.8,2470.829,13.29,0.008,290.6
2022-08-22T08:52:03,42.805,6.029,-0.008,0.008,-0.008,102.0,103.0,101.0,13.3,1505.2,328.9,-0.8,1.8,2470.821,13.29,0.011,315.0
2022-08-22T08:55:03,42.805,6.029,-0.039,0.003,-0.004,103.0,103.0,100.0,13.4,1505.2,324.1,-0.8,1.8,2470.832,13.29,0.039,274.4
2022-08-22T08:58:03,42.805,6.029,-0.017,0.009,-0.024,104.0,103.0,101.0,13.3,1505.2,329.0,-0.7,1.8,2470.853,13.29,0.019,297.9
2022-08-22T09:04:03,42.805,6.029,-0.03,0.0,-0.013,102.0,103.0,101.0,13.3,1505.2,318.1,-0.8,1.8,2470.846,13.29,0.03,270.0
2022-08-22T09:07:03,42.805,6.029,-0.034,0.013,-0.005,104.0,102.0,100.0,13.4,1505.2,325.3,-0.8,1.8,2470.817,13.29,0.036,290.9
2022-08-22T09:10:03,42.805,6.029,-0.034,0.007,-0.011,102.0,104.0,101.0,13.3,1505.2,325.9,-0.7,1.8,2470.821,13.29,0.034,281.6
2022-08-22T09:13:03,42.805,6.029,-0.007,0.009,0.008,103.0,102.0,101.0,13.4,1505.2,324.1,-0.7,1.8,2470.827,13.29,0.011,322.1
2022-08-22T09:16:03,42.805,6.029,-0.008,0.005,-0.007,105.0,103.0,100.0,13.4,1505.2,320.9,-0.8,1.8,2470.811,13.29,0.009,302.0
2022-08-22T09:19:03,42.805,6.029,-0.032,0.016,-0.001,104.0,102.0,101.0,13.4,1505.2,320.9,-0.8,1.8,2470.812,13.29,0.035,296.6
2022-08-22T09:22:03,42.805,6.029,-0.03,0.004,-0.009,103.0,102.0,101.0,13.4,1505.2,326.3,-0.8,1.8,2470.814,13.29,0.03,277.6
2022-08-22T09:25:03,42.805,6.029,-0.019,0.01,-0.021,103.0,101.0,101.0,13.4,1505.2,333.1,-0.8,1.8,2470.8,13.29,0.021,297.8
2022-08-22T09:28:03,42.805,6.029,-0.017,0.002,-0.006,102.0,102.0,101.0,13.4,1505.2,323.0,-0.8,1.8,2470.825,13.29,0.017,276.7
2022-08-22T09:31:03,42.805,6.029,0.001,-0.02,-0.037,103.0,102.0,100.0,13.4,1505.2,334.2,-0.7,1.8,2470.832,13.29,0.02,177.1
2022-08-22T09:34:03,42.805,6.029,-0.022,0.008,-0.033,106.0,103.0,101.0,13.3,1505.2,321.5,-0.7,1.8,2470.787,13.29,0.023,290.0
2022-08-22T09:37:03,42.805,6.029,-0.015,0.004,-0.02,102.0,102.0,101.0,13.4,1505.2,329.4,-0.7,1.8,2470.837,13.29,0.015,284.9
2022-08-22T09:40:03,42.805,6.029,-0.035,0.008,-0.035,103.0,104.0,100.0,13.4,1505.2,322.0,-0.7,1.8,2470.802,13.29,0.035,282.9
2022-08-22T09:43:03,42.805,6.029,0.001,-0.008,-0.007,103.0,103.0,102.0,13.3,1505.2,319.0,-0.8,1.8,2470.799,13.29,0.008,172.9
2022-08-22T09:46:03,42.805,6.029,-0.015,-0.004,-0.001,103.0,103.0,101.0,13.4,1505.2,321.5,-0.8,1.8,2470.828,13.29,0.015,255.1
2022-08-22T09:49:03,42.805,6.029,-0.019,-0.013,-0.004,104.0,102.0,101.0,13.4,1505.2,324.3,-0.7,1.8,2470.811,13.29,0.023,235.6
2022-08-22T09:52:03,42.805,6.029,-0.005,-0.004,-0.001,102.0,104.0,100.0,13.3,1505.2,327.6,-0.7,1.8,2470.817,13.29,0.006,231.3
2022-08-22T09:55:03,42.805,6.029,-0.027,0.014,-0.009,103.0,103.0,102.0,13.4,1505.2,329.2,-0.8,1.8,2470.804,13.29,0.03,297.4